Sunshine Coast Airport Observation History
Time Wind Speed Temp Pressure Rel. Hum Rain
08/09:30am SSW 12-15 kts 20.6°c 1018.6 hPa 91% 0.4mm
08/09:08am SW 11-13 kts 20.0°c 1018.6 hPa 95% 0.4mm
08/09:03am SW 12-15 kts 19.7°c 1018.6 hPa 94% 0.2mm
08/09:00am SSW 12-15 kts 19.5°c 1018.6 hPa 94% n/a
08/08:32am NNW 5-10 kts 19.1°c 1018.8 hPa 94% n/a
08/08:30am W 4-8 kts 19.2°c 1018.8 hPa 93% n/a
08/08:23am SW 5-9 kts 19.1°c 1018.6 hPa 93% n/a
08/08:12am SSW 6-9 kts 18.9°c 1018.3 hPa 94% n/a
08/08:03am SW 8-13 kts 18.8°c 1018.2 hPa 93% n/a
08/08:00am SW 9-13 kts 19.0°c 1018.2 hPa 94% n/a
08/07:49am SSW 11-16 kts 18.8°c 1018.0 hPa 93% n/a
08/07:43am SSW 11-17 kts 19.1°c 1017.8 hPa 92% n/a
08/07:30am SSW 11-15 kts 19.1°c 1017.7 hPa 92% n/a
08/07:00am SSW 13-16 kts 18.9°c 1017.0 hPa 93% n/a
08/06:30am SSW 12-16 kts 18.9°c 1016.9 hPa 93% n/a
08/06:11am SSW 10-13 kts 18.9°c 1016.8 hPa 93% n/a
08/06:00am SSW 10-16 kts 18.8°c 1016.7 hPa 93% n/a
08/05:30am SSW 10-13 kts 18.8°c 1016.4 hPa 93% n/a
08/05:26am SSW 10-13 kts 18.8°c 1016.4 hPa 93% n/a
08/05:08am SSW 11-15 kts 18.8°c 1016.2 hPa 93% n/a
08/05:00am SW 9-14 kts 18.9°c 1016.1 hPa 93% n/a
08/04:30am SSW 11-15 kts 19.0°c 1015.7 hPa 93% n/a
08/04:00am SSW 13-17 kts 19.1°c 1015.6 hPa 91% n/a
08/03:30am SSW 11-15 kts 19.0°c 1015.5 hPa 90% n/a
08/03:06am SSW 11-15 kts 19.1°c 1015.6 hPa 91% n/a
08/03:00am SSW 11-15 kts 19.1°c 1015.7 hPa 92% 2.0mm
08/02:55am SSW 12-15 kts 19.0°c 1015.6 hPa 91% n/a
08/02:30am SSW 11-16 kts 19.3°c 1015.9 hPa 91% n/a
08/02:00am SSW 11-13 kts 19.3°c 1016.0 hPa 91% n/a
08/01:41am SSW 10-13 kts 19.3°c 1016.2 hPa 92% n/a
08/01:30am SSW 11-15 kts 19.4°c 1016.3 hPa 92% n/a
08/01:06am SSW 8-11 kts 19.6°c 1016.5 hPa 91% n/a
08/01:05am SSW 8-11 kts 19.5°c 1016.6 hPa 91% n/a
08/01:00am SSW 8-11 kts 19.7°c 1016.5 hPa 92% n/a
08/12:49am SSW 13-18 kts 20.0°c 1016.6 hPa 90% n/a
08/12:30am SSW 13-19 kts 20.8°c 1016.6 hPa 84% n/a
08/12:00am S 14-18 kts 21.0°c 1016.6 hPa 83% n/a
Time Wind Speed Temp Pressure Rel. Hum Rain
07/11:30pm SSW 12-16 kts 21.0°c 1016.8 hPa 83% n/a
07/11:00pm SSW 12-15 kts 21.5°c 1016.9 hPa 78% n/a
07/10:30pm S 13-18 kts 21.8°c 1017.1 hPa 75% n/a
07/10:00pm SSW 10-12 kts 22.3°c 1017.3 hPa 74% n/a
07/09:30pm S 11-18 kts 22.7°c 1017.2 hPa 72% n/a
07/09:00pm SSE 14-18 kts 22.9°c 1017.0 hPa 72% 0.0mm
07/08:30pm S 12-17 kts 22.9°c 1016.9 hPa 71% n/a
07/08:00pm SSE 11-17 kts 23.0°c 1016.8 hPa 71% n/a
07/07:30pm SSE 13-18 kts 23.1°c 1016.5 hPa 70% n/a
07/07:00pm SSE 13-19 kts 23.3°c 1016.1 hPa 71% n/a
07/06:30pm SSE 13-19 kts 23.7°c 1015.6 hPa 71% n/a
07/06:00pm SSE 11-16 kts 23.5°c 1015.3 hPa 67% n/a
07/05:30pm SSE 12-17 kts 23.9°c 1015.0 hPa 63% n/a
07/05:00pm SE 10-15 kts 24.4°c 1014.8 hPa 60% n/a
07/04:30pm SE 11-14 kts 24.8°c 1014.8 hPa 57% n/a
07/04:00pm SE 12-16 kts 25.3°c 1014.7 hPa 60% n/a
07/03:30pm SE 12-17 kts 25.6°c 1014.8 hPa 58% n/a
07/03:00pm SSE 13-16 kts 25.8°c 1014.9 hPa 56% n/a
07/02:30pm SE 12-17 kts 26.2°c 1015.0 hPa 56% n/a
07/02:00pm SE 13-18 kts 26.0°c 1015.1 hPa 55% n/a
07/01:30pm SSE 12-17 kts 26.7°c 1015.3 hPa 55% n/a
07/01:00pm SSE 14-20 kts 26.5°c 1015.7 hPa 56% n/a
07/12:30pm SSE 14-18 kts 26.6°c 1016.0 hPa 57% n/a
07/12:00pm SSE 14-18 kts 26.3°c 1016.3 hPa 58% n/a
07/11:30am SSE 15-21 kts 26.5°c 1016.8 hPa 58% n/a
07/10:30am SSE 14-20 kts 25.6°c 1017.5 hPa n/a 0.0mm
07/10:00am SSE 15-21 kts 25.5°c 1017.5 hPa n/a 0.0mm
07/09:30am SSE 15-22 kts 25.0°c 1017.4 hPa n/a 0.0mm
07/09:00am S 15-18 kts 23.9°c 1017.3 hPa n/a 0.0mm
07/08:30am S 14-18 kts 22.4°c 1017.2 hPa n/a 0.0mm
07/08:00am SSW 12-16 kts 22.0°c 1016.8 hPa n/a 0.0mm
07/07:30am SSW 11-15 kts 21.4°c 1016.6 hPa n/a 0.0mm
07/07:00am SSW 12-15 kts 20.9°c 1016.2 hPa n/a 0.0mm
07/06:30am SSW 10-15 kts 20.7°c 1015.8 hPa n/a 0.0mm
07/06:00am SSW 10-15 kts 20.6°c 1015.5 hPa n/a 0.0mm
07/05:30am SSW 8-11 kts 20.7°c 1015.5 hPa n/a 0.0mm
07/05:00am SW 7-8 kts 19.3°c 1015.1 hPa n/a 0.0mm
07/04:30am SW 7-8 kts 19.3°c 1014.9 hPa n/a 0.0mm
07/04:00am SW 8-12 kts 20.1°c 1014.8 hPa n/a 0.0mm
07/03:30am SW 8-11 kts 20.2°c 1014.9 hPa n/a 0.0mm
07/03:00am SW 7-9 kts 19.6°c 1014.9 hPa n/a 0.0mm
07/02:30am SW 6-7 kts 19.5°c 1014.9 hPa n/a 0.0mm
07/02:00am SW 6-7 kts 19.4°c 1015.1 hPa n/a 0.0mm
07/01:30am SW 5-7 kts 19.0°c 1015.3 hPa n/a 0.0mm
07/01:00am WSW 4-5 kts 19.0°c 1015.5 hPa n/a 0.0mm
07/12:30am SW 5-7 kts 19.4°c 1015.7 hPa n/a 0.0mm
07/12:00am SW 4-6 kts 19.7°c 1016.0 hPa n/a 0.0mm
Time Wind Speed Temp Pressure Rel. Hum Rain
06/11:30pm SW 5-6 kts 20.2°c 1016.1 hPa n/a 0.0mm
06/11:00pm SW 5-6 kts 21.4°c 1016.1 hPa n/a 0.0mm
06/10:30pm SE 7-12 kts 23.4°c 1016.3 hPa n/a 0.0mm
06/10:00pm ESE 9-13 kts 23.7°c 1016.4 hPa n/a 0.0mm
06/09:30pm ESE 10-14 kts 23.7°c 1016.4 hPa n/a 0.0mm
06/09:00pm SE 10-13 kts 23.7°c 1016.4 hPa n/a 0.0mm
06/08:30pm SE 9-13 kts 23.7°c 1016.3 hPa n/a 0.0mm
06/08:00pm SE 9-13 kts 23.7°c 1016.1 hPa n/a 0.0mm
06/07:30pm SE 10-13 kts 23.7°c 1015.8 hPa n/a 0.0mm
06/07:00pm SE 9-12 kts 23.5°c 1015.3 hPa n/a 0.0mm
06/06:30pm SE 9-13 kts 23.6°c 1015.0 hPa n/a 0.0mm
06/06:00pm ESE 10-13 kts 23.6°c 1014.7 hPa n/a 0.0mm
06/05:30pm ESE 10-13 kts 23.9°c 1014.4 hPa n/a 0.0mm
06/05:00pm ESE 10-14 kts 24.4°c 1014.2 hPa n/a 0.0mm
06/04:30pm SE 11-16 kts 24.8°c 1014.0 hPa n/a 0.0mm
06/04:00pm ESE 12-16 kts 25.2°c 1013.9 hPa n/a 0.0mm
06/03:30pm SE 12-15 kts 25.5°c 1013.9 hPa n/a 0.0mm
06/03:00pm ESE 12-15 kts 25.5°c 1014.1 hPa n/a 0.0mm
06/02:30pm ESE 11-14 kts 25.9°c 1014.1 hPa n/a 0.0mm
06/02:00pm ESE 10-13 kts 26.3°c 1014.3 hPa n/a 0.0mm
06/01:30pm ESE 10-13 kts 26.4°c 1014.4 hPa n/a 0.0mm
06/01:00pm ESE 10-13 kts 26.1°c 1014.7 hPa n/a 0.0mm
06/12:30pm ESE 9-12 kts 26.5°c 1015.0 hPa n/a 0.0mm
06/12:00pm ESE 9-11 kts 26.2°c 1015.4 hPa n/a 0.0mm
06/11:30am SE 8-10 kts 26.2°c 1015.9 hPa n/a 0.0mm
06/11:00am SE 9-11 kts 25.9°c 1016.2 hPa n/a 0.0mm
06/10:30am SE 8-10 kts 25.6°c 1016.2 hPa n/a 0.0mm
06/10:00am SW 7-10 kts 25.7°c 1016.4 hPa n/a 0.0mm
06/09:30am S 9-11 kts 25.3°c 1016.5 hPa n/a 0.0mm
06/09:00am SSW 9-11 kts 24.3°c 1016.8 hPa n/a 0.0mm
06/08:30am SSW 7-10 kts 23.5°c 1016.9 hPa n/a 0.0mm
06/08:00am WSW 6-8 kts 21.8°c 1016.8 hPa n/a 0.0mm
06/07:30am WSW 6-8 kts 19.9°c 1016.5 hPa n/a 0.0mm
06/07:00am WSW 5-7 kts 18.5°c 1016.3 hPa n/a 0.0mm
06/06:30am W 2-5 kts 16.4°c 1016.0 hPa n/a 0.0mm
06/06:00am WSW 5-6 kts 17.3°c 1015.7 hPa n/a 0.0mm
06/05:30am WSW 5-6 kts 17.0°c 1015.6 hPa n/a 0.0mm
06/05:00am WNW 4-5 kts 16.1°c 1015.3 hPa n/a 0.0mm
06/04:30am WSW 3-5 kts 16.3°c 1015.1 hPa n/a 0.0mm
06/04:00am SW 4-5 kts 17.4°c 1014.6 hPa n/a 0.0mm
06/03:30am W 3-5 kts 16.6°c 1014.5 hPa n/a 0.0mm
06/03:00am W 4 kts 16.8°c 1014.5 hPa n/a 0.0mm
06/02:30am WSW 3-4 kts 17.3°c 1014.3 hPa n/a 0.0mm
06/02:00am WSW 3-4 kts 17.7°c 1014.5 hPa n/a 0.0mm
06/01:30am WSW 1-4 kts 17.7°c 1014.7 hPa n/a 0.0mm
06/01:00am WSW 3-4 kts 17.9°c 1014.9 hPa n/a 0.0mm
06/12:30am CALM 0 kts 18.0°c 1015.1 hPa n/a 0.0mm
06/12:00am WSW 4-5 kts 18.1°c 1015.3 hPa n/a 0.0mm